La Porte, IN

8:49 AM CDT on October 19, 2017 (GMT -0500)
La Porte Municipal

Weather History for KPPO - January, 2013

Change the Weather History Date:

Tuesday, January 15, 2013

  Actual Average (KSBN) Record (KSBN)
Temperature  
Mean Temperature 20 °F -  
Max Temperature 29 °F 29 °F 61 °F (1932)
Min Temperature 11 °F 15 °F -15 °F (1994)
Degree Days  
Heating Degree Days 45    
Moisture  
Dew Point 15 °F    
Average Humidity 82    
Maximum Humidity 93    
Minimum Humidity 61    
Precipitation  
Precipitation 0.00 in - - ()
Sea Level Pressure  
Sea Level Pressure 30.31 in    
Wind  
Wind Speed 1 mph (ESE)    
Max Wind Speed 5 mph    
Max Gust Speed -    
Visibility 9 miles    
Events      
Averages and records for this station are not official NWS values.
T = Trace of Precipitation, MM = Missing Value Source: NWS Daily Summary

Daily Weather History Graph

Daily Weather History Graph

Search for Another Location

Airport or City:

Trip Planner

Search our weather history database for the weather conditions in past years. The results will help you decide how hot, cold, wet, or windy it might be!

Date:

Astronomy

Jan. 15, 2013 Rise Set
Actual Time 7:11 AM CST 4:42 PM CST
Civil Twilight 6:40 AM CST 5:12 PM CST
Nautical Twilight 6:06 AM CST 5:46 PM CST
Astronomical Twilight 5:33 AM CST 6:20 PM CST
Moon 9:12 AM CST (1/15) 9:35 PM CST (1/15)
Length of Visible Light 10h 32m
Length of Day
9h 31m
Waxing Crescent, 19% of the Moon is Illuminated
Jan 15
Waxing Crescent
Jan 18
First Quarter
Jan 26
Full
Feb 3
Last Quarter
Feb 10
New

Hourly Weather History & Observations

Time (CST) Temp. Windchill Dew Point Humidity Pressure Visibility Wind Dir Wind Speed Gust Speed Precip Events Conditions
12:15 AM 14.7 °F - 12.2 °F 90% 30.41 in 10.0 mi Calm Calm - N/A   Overcast
12:35 AM 12.7 °F - 10.0 °F 89% 30.41 in 10.0 mi Calm Calm - N/A   Overcast
12:55 AM 14.0 °F - 11.8 °F 91% 30.41 in 10.0 mi Calm Calm - N/A   Overcast
1:15 AM 13.1 °F - 10.9 °F 91% 30.40 in 10.0 mi Calm Calm - N/A   Overcast
1:35 AM 14.0 °F - 12.0 °F 92% 30.40 in 10.0 mi Calm Calm - N/A   Overcast
1:55 AM 12.7 °F - 10.2 °F 90% 30.40 in 10.0 mi Calm Calm - N/A   Overcast
2:15 AM 13.8 °F - 11.3 °F 90% 30.40 in 7.0 mi Calm Calm - N/A   Overcast
2:35 AM 12.2 °F - 9.9 °F 90% 30.40 in 10.0 mi Calm Calm - N/A   Overcast
3:15 AM 13.3 °F - 11.1 °F 91% 30.40 in 7.0 mi Calm Calm - N/A   Overcast
3:35 AM 12.4 °F - 9.9 °F 90% 30.40 in 7.0 mi Calm Calm - N/A   Overcast
3:55 AM 12.0 °F - 9.9 °F 91% 30.39 in 7.0 mi Calm Calm - N/A   Overcast
4:15 AM 12.6 °F - 10.2 °F 90% 30.39 in 10.0 mi Calm Calm - N/A   Overcast
4:35 AM 12.2 °F - 9.5 °F 89% 30.38 in 10.0 mi Calm Calm - N/A   Overcast
4:55 AM 12.9 °F - 10.4 °F 90% 30.39 in 7.0 mi Calm Calm - N/A   Overcast
5:15 AM 12.2 °F - 9.7 °F 90% 30.38 in 7.0 mi Calm Calm - N/A   Overcast
5:35 AM 12.0 °F - 9.5 °F 90% 30.37 in 7.0 mi Calm Calm - N/A   Overcast
5:55 AM 11.1 °F - 8.2 °F 88% 30.37 in 7.0 mi Calm Calm - N/A   Overcast
6:15 AM 11.1 °F - 8.4 °F 89% 30.38 in 10.0 mi Calm Calm - N/A   Overcast
6:35 AM 12.9 °F - 10.4 °F 90% 30.39 in 7.0 mi Calm Calm - N/A   Overcast
6:55 AM 13.3 °F 7.3 °F 10.9 °F 90% 30.40 in 7.0 mi SSE 3.5 mph - N/A   Overcast
7:15 AM 13.1 °F - 10.8 °F 90% 30.39 in 7.0 mi Calm Calm - N/A   Overcast
7:35 AM 13.1 °F - 10.9 °F 91% 30.40 in 7.0 mi Calm Calm - N/A   Mostly Cloudy
7:55 AM 14.2 °F - 12.0 °F 91% 30.40 in 7.0 mi Calm Calm - N/A   Scattered Clouds
8:15 AM 15.4 °F - 13.1 °F 90% 30.40 in 7.0 mi Calm Calm - N/A   Clear
8:35 AM 16.3 °F - 14.0 °F 90% 30.39 in 7.0 mi Calm Calm - N/A   Clear
8:55 AM 17.8 °F - 15.4 °F 91% 30.40 in 7.0 mi Calm Calm - N/A   Clear
9:15 AM 19.4 °F - 16.7 °F 89% 30.41 in 7.0 mi Calm Calm - N/A   Clear
9:35 AM 20.8 °F - 17.6 °F 87% 30.41 in 7.0 mi Calm Calm - N/A   Clear
9:55 AM 22.8 °F 18.2 °F 19.4 °F 87% 30.41 in 7.0 mi South 3.5 mph - N/A   Clear
10:15 AM 23.0 °F - 18.9 °F 84% 30.41 in 7.0 mi Calm Calm - N/A   Clear
10:35 AM 25.0 °F 20.7 °F 19.6 °F 80% 30.40 in 10.0 mi SE 3.5 mph - N/A   Clear
10:55 AM 25.7 °F - 20.1 °F 79% 30.37 in 10.0 mi Calm Calm - N/A   Clear
11:15 AM 27.3 °F - 19.4 °F 72% 30.36 in 10.0 mi Calm Calm - N/A   Clear
11:35 AM 27.9 °F 24.0 °F 18.7 °F 68% 30.34 in 10.0 mi SE 3.5 mph - N/A   Clear
11:55 AM 28.4 °F 23.3 °F 18.9 °F 67% 30.35 in 10.0 mi SSE 4.6 mph - N/A   Clear
12:15 PM 28.4 °F 24.6 °F 18.9 °F 67% 30.34 in 10.0 mi ESE 3.5 mph - N/A   Clear
12:35 PM 28.0 °F 24.2 °F 17.2 °F 64% 30.32 in 10.0 mi East 3.5 mph - N/A   Clear
12:55 PM 27.5 °F - 16.9 °F 64% 30.30 in 10.0 mi Calm Calm - N/A   Clear
1:35 PM 28.2 °F 24.4 °F 17.6 °F 64% 30.29 in 10.0 mi ENE 3.5 mph - N/A   Clear
1:55 PM 28.0 °F 24.2 °F 17.2 °F 64% 30.29 in 10.0 mi East 3.5 mph - N/A   Clear
2:15 PM 28.4 °F 23.3 °F 16.5 °F 61% 30.29 in 10.0 mi East 4.6 mph - N/A   Clear
2:35 PM 29.1 °F 25.4 °F 17.1 °F 61% 30.29 in 10.0 mi East 3.5 mph - N/A   Clear
2:55 PM 28.8 °F 25.0 °F 17.4 °F 63% 30.28 in 10.0 mi ESE 3.5 mph - N/A   Clear
3:15 PM 28.4 °F - 17.8 °F 64% 30.28 in 10.0 mi Calm Calm - N/A   Clear
3:35 PM 28.0 °F - 16.9 °F 63% 30.28 in 10.0 mi Calm Calm - N/A   Clear
3:55 PM 28.4 °F 24.6 °F 18.0 °F 65% 30.30 in 10.0 mi SSE 3.5 mph - N/A   Clear
4:15 PM 28.2 °F 23.1 °F 18.3 °F 66% 30.29 in 10.0 mi South 4.6 mph - N/A   Clear
4:35 PM 27.5 °F 23.6 °F 18.9 °F 70% 30.28 in 10.0 mi SSE 3.5 mph - N/A   Clear
4:55 PM 27.5 °F 22.2 °F 17.6 °F 66% 30.28 in 10.0 mi SSE 4.6 mph - N/A   Clear
5:15 PM 27.1 °F - 18.5 °F 70% 30.28 in 10.0 mi Calm Calm - N/A   Clear
5:35 PM 26.6 °F - 18.9 °F 73% 30.27 in 10.0 mi Calm Calm - N/A   Clear
5:55 PM 26.6 °F - 18.3 °F 71% 30.26 in 10.0 mi Calm Calm - N/A   Clear
6:15 PM 25.7 °F - 18.3 °F 74% 30.25 in 10.0 mi Calm Calm - N/A   Clear
6:35 PM 24.4 °F - 19.4 °F 81% 30.24 in 10.0 mi Calm Calm - N/A   Clear
6:55 PM 22.5 °F 17.8 °F 18.9 °F 86% 30.23 in 10.0 mi NNE 3.5 mph - N/A   Clear
7:15 PM 23.2 °F 18.7 °F 18.9 °F 84% 30.21 in 10.0 mi NNE 3.5 mph - N/A   Clear
7:35 PM 21.9 °F 17.2 °F 18.1 °F 85% 30.21 in 10.0 mi North 3.5 mph - N/A   Clear
7:55 PM 20.8 °F - 17.8 °F 88% 30.20 in 10.0 mi Calm Calm - N/A   Clear
8:15 PM 20.1 °F - 17.6 °F 90% 30.19 in 10.0 mi Calm Calm - N/A   Clear
8:35 PM 20.5 °F - 18.0 °F 90% 30.19 in 10.0 mi Calm Calm - N/A   Clear
8:55 PM 19.4 °F - 16.9 °F 90% 30.19 in 7.0 mi Calm Calm - N/A   Scattered Clouds
9:15 PM 19.2 °F - 17.1 °F 91% 30.17 in 7.0 mi Calm Calm - N/A   Scattered Clouds
9:35 PM 20.3 °F - 18.5 °F 93% 30.16 in 7.0 mi Calm Calm - N/A   Scattered Clouds
9:55 PM 19.9 °F - 18.1 °F 93% 30.16 in 7.0 mi Calm Calm - N/A   Clear
10:15 PM 18.7 °F 13.5 °F 16.9 °F 93% 30.16 in 7.0 mi NNW 3.5 mph - N/A   Clear
10:35 PM 17.4 °F - 15.4 °F 92% 30.14 in 7.0 mi Calm Calm - N/A   Mostly Cloudy
10:55 PM 18.3 °F 13.1 °F 16.5 °F 93% 30.14 in 7.0 mi North 3.5 mph - N/A   Overcast
11:15 PM 17.6 °F - 15.8 °F 93% 30.13 in 7.0 mi Calm Calm - N/A   Mostly Cloudy
11:35 PM 18.0 °F - 16.2 °F 93% 30.11 in 7.0 mi Calm Calm - N/A   Mostly Cloudy